#timestamp,LO_Frequency,Hit,StdDev 
1606528815.8,286046996.0,N
1606528835.6,286046995.1,N
1606528855.5,286046995.5,N
1606528875.3,286046997.6,N
1606528895.1,286046995.0,N
1606528915.9,286046995.1,N
1606528935.7,286046997.5,N
1606528955.5,286046994.9,N
1606528975.4,286046995.0,N
1606528995.2,286046997.5,N
1606529015.0,286046997.1,N
1606529015.9,286046997.1,N
1606529035.8,286046997.7,N
1606529055.6,286046996.7,N
1606529075.4,286046997.8,N
1606529095.3,286046999.1,N
1606529115.1,286046999.1,N
1606529116.0,286046999.1,N
1606529135.8,286046999.1,N
1606529155.7,286046999.2,N
1606529175.5,286046996.9,N
1606529195.3,286046997.0,N
1606529215.2,286046997.2,N
1606529235.9,286046997.2,N
1606529255.7,286046996.7,N
1606529275.6,286046997.7,N
1606529295.4,286046996.7,N
1606529315.2,286046997.2,N
1606529335.1,286046997.6,N
1606529336.0,286046997.6,N
1606529355.8,286046997.2,N
1606529375.6,286046997.2,N
1606529395.5,286046997.7,N
1606529415.3,286046995.2,Y
1606529435.1,286046999.0,P
1606529455.9,286046998.4,N
1606529475.7,286047001.0,N
1606529495.5,286047000.8,N
1606529515.4,286047001.1,N
1606529535.2,286047000.1,N
1606529555.0,286047002.3,N
1606529555.9,286047002.3,N
1606529575.8,286046999.7,N
1606529595.6,286047002.8,N
1606529615.4,286047000.5,N
1606529635.3,286047001.0,N
1606529655.1,286047000.6,N
1606529656.0,286047000.6,N
1606529675.8,286047000.2,N
1606529695.7,286046999.9,N
1606529715.5,286046998.2,N
1606529735.3,286046998.1,N
1606529755.2,286047000.7,N
1606529775.9,286046998.5,N
1606529795.7,286047000.6,N
1606529815.6,286047000.4,N
1606529835.4,286047001.2,N
1606529855.2,286046999.9,N
1606529875.1,286046998.5,N
1606529876.0,286046998.5,N
1606529895.8,286047000.8,N
1606529915.6,286047000.9,N
1606529935.5,286046998.8,N
1606529955.3,286046998.2,N
1606529975.1,286046998.2,N
1606529995.9,286047000.5,N
1606530015.7,286047002.8,N
1606530035.5,286046999.9,N
1606530055.4,286046998.9,N
1606530075.2,286046998.4,N
1606530095.0,286046998.9,N
1606530095.9,286046998.9,N
1606530115.8,286046997.0,N
1606530135.6,286046996.6,N
1606530155.4,286046997.8,N
1606530175.3,286046996.7,N
1606530195.1,286046997.1,N
1606530196.0,286046997.1,N
1606530215.8,286046996.6,N
1606530235.7,286046999.2,N
1606530255.5,286046996.7,N
1606530275.3,286046997.1,N
1606530295.2,286046999.2,N
1606530315.9,286046996.7,N
1606530335.7,286046997.0,N
1606530355.6,286046997.2,N
1606530375.4,286046997.4,N
1606530395.2,286046997.1,N
1606530415.1,286046997.4,N
1606530416.0,286046997.4,N
1606530435.8,286046997.6,N
1606530455.6,286046997.1,N
1606530475.5,286046996.8,N
1606530495.3,286046999.2,N
1606530515.1,286046997.2,N
1606530535.9,286046999.2,N
1606530555.7,286046998.4,N
1606530575.5,286046998.6,N
1606530595.4,286046999.4,N
1606530615.2,286046999.3,N
1606530635.0,286046998.3,N
1606530635.9,286046998.3,N
1606530655.8,286046998.3,N
1606530675.6,286046998.7,N
1606530695.4,286046998.8,N
1606530715.3,286046999.0,N
1606530735.1,286046999.3,N
1606530736.0,286046999.3,N
1606530755.8,286046999.3,N
1606530775.7,286046998.9,N
1606530795.5,286046998.9,N
1606530815.3,286046996.5,Y
1606530835.2,286047001.1,P
1606530855.9,286047000.6,N
1606530875.7,286046999.7,N
1606530895.6,286047000.1,N
1606530915.4,286046999.9,N
1606530935.2,286047000.1,N
1606530955.1,286047002.1,N
1606530956.0,286047002.1,N
1606530975.8,286047002.0,N
1606530995.6,286047002.6,N
1606531015.5,286047002.6,N
1606531035.3,286046999.7,N
1606531055.1,286047002.8,N
1606531075.9,286047002.7,N
1606531095.7,286047001.1,N
1606531115.5,286047000.5,N
1606531135.4,286047000.1,N
1606531155.2,286046999.7,N
1606531175.0,286047000.0,N
1606531175.9,286047000.0,N
1606531195.8,286047000.1,N
1606531215.6,286046999.7,N
1606531235.4,286047002.1,N
1606531255.3,286047002.1,N
1606531275.1,286047002.0,N
1606531276.0,286047002.0,N
1606531295.8,286047003.9,Y
1606531315.7,286047000.2,P
1606531335.5,286047000.9,N
1606531355.3,286047000.3,N
1606531375.2,286046999.9,N
1606531395.9,286046998.3,Y
1606531415.7,286046998.3,P
1606531435.6,286047001.2,N
1606531455.4,286047000.9,N
1606531475.2,286047000.7,N
1606531495.1,286047000.5,N
1606531496.0,286047000.5,N
1606531515.8,286047000.4,N
1606531535.6,286047000.7,N
1606531555.5,286047001.0,N
1606531575.3,286046998.6,N
1606531595.1,286047001.1,N
1606531615.9,286047000.4,N
1606531635.7,286046999.8,N
1606531655.5,286047000.5,N
1606531675.4,286047000.6,N
1606531695.2,286047000.3,N
1606531715.0,286047000.9,N
1606531715.9,286047000.9,N
1606531735.8,286046998.6,N
1606531755.6,286046999.3,N
1606531775.4,286047001.0,N
1606531795.2,286047000.9,N
1606531815.1,286047000.3,N
1606531816.0,286047000.3,N
1606531835.8,286046999.9,N
1606531855.7,286047001.0,N
1606531875.5,286046998.3,N
1606531895.3,286046999.6,N
1606531915.1,286046998.3,N
1606531935.9,286046999.3,N
1606531955.7,286046996.9,Y
1606531975.6,286046996.6,P
1606531995.4,286046996.8,N
1606532015.2,286046997.1,N
1606532035.1,286046997.8,N
1606532036.0,286046997.8,N
1606532055.8,286046998.0,N
1606532075.6,286046995.4,Y
1606532095.5,286046996.7,P
1606532115.3,286046999.6,N
1606532135.1,286046999.2,N
1606532155.9,286046999.3,N
1606532175.7,286046998.8,N
1606532195.5,286046998.8,N
1606532215.4,286046999.5,N
1606532235.2,286046997.0,Y
1606532255.0,286047000.6,P
1606532255.9,286047000.6,N
1606532275.8,286046999.8,N
1606532295.6,286047000.5,N
1606532315.4,286047000.8,N
1606532335.3,286047001.2,N
1606532355.1,286046999.4,N
1606532356.0,286046999.4,N
1606532375.8,286046998.5,N
1606532395.7,286046999.3,N
